www.pogodaiklimat.ru

Погода и климат >> Архив погоды >> Россия >> Магаданская область >> Лабазная


ПОГОДА в Лабазной

  • Прогноз погоды в Лабазной
  • Монитор погоды в Лабазной

АРХИВ ПОГОДЫ в Лабазной

Время (UTC), дата Ветер
(напр.,м/с)
 
Видим.   Явления Облачность Т
(С)
Тd
(С)
f
(%)
Тe
(С)
Тes
(С)
Комфортность P
(гПа)
Po
(гПа)
Тmin
(С)
Tmax
(С)
R
(мм)
R24
(мм)
S
(см)
18 12.06 ЮЗ 1 50 км 3/0
[Ci fib]
+4.0 -0.6 72 +3 +4 1016.4 932.1
21 12.06 Ю 1 50 км 10/0
[Cs]
+11.3 0.0 46 +12 +17 1014.3 932.2 +1.6
00 13.06 С 1 50 км 10/0
[Cs]
+17.1 -4.2 23 +18 +30 опасность
простуды
1011.8 931.4
03 13.06 В 2 50 км 8/0
[Ci fib]
+20.3 -3.5 20 +21 +31 комфорт 1009.6 930.2
06 13.06 З 2 50 км 8/0
[Ci fib]
+20.2 -5.2 18 +20 +25 1008.7 929.4
09 13.06 Ю 3 50 км 8/0
[Ci fib]
+16.5 -1.3 30 +16 +17 1010.3 929.9 +20.7
12 13.06 штиль 0 50 км 3/0
[Ci fib]
+8.7 -0.8 51 +8 +8 1013.6 930.8
15 13.06 Ю 1 50 км ясно +1.8 -1.8 77 0 0 1016.6 931.6
18 13.06 ЮЗ 1 50 км 3/0
[Ci fib]
+3.0 -0.8 76 +2 +3 1016.8 932.2
21 13.06 ЮЗ 2 50 км ясно +13.6 -0.5 38 +13 +19 1013.3 931.9 0.0
00 14.06 Ю 1 50 км ясно +19.4 -5.8 18 +20 +35 опасность
простуды
1010.6 930.9
03 14.06 ЮЗ 2 50 км 3/3 1000 м
[Cu hum]
+21.3 -3.1 19 +20 +29 1009.1 930.1
06 14.06 Ю 2 50 км 3/3 1000 м
[Cu hum]
+21.0 -3.4 19 +21 +25 комфорт 1008.7 929.6
09 14.06 Ю 3 50 км ясно +18.9 -3.1 22 +19 +20 1009.9 930.2 +22.2
12 14.06 Ю 1 50 км ясно +8.7 +0.9 58 +8 +8 1014.4 931.6
15 14.06 Ю 1 50 км ясно +2.7 0.0 82 +1 +1 1017.6 932.8
18 14.06 штиль 0 50 км ясно +4.2 +1.3 81 +3 +5 1018.0 933.6
21 14.06 СВ 1 50 км ясно +14.6 +2.5 44 +15 +22 1015.1 933.9 +0.4
00 15.06 СВ 4 50 км 4/1 600 м
[Cu med, cong Ci fib]
+20.6 -4.2 18 +20 +27 1013.2 933.6
03 15.06 В 2 50 км 8/4 600 м
[Cu med, cong Ci fib]
+21.0 -3.3 19 +21 +27 комфорт 1012.9 933.5
06 15.06 Ю 3
{12}
50 км 8/4 1000 м
[Cu med, cong Ac As]
+19.2 -2.4 23 +19 +21 1013.7 933.7
09 15.06 Ю 4 50 км 8/0
[Ci fib]
+17.9 -4.0 22 +18 +18 1014.9 934.5 +22.3
12 15.06 В 1 50 км 6/3 1000 м
[Sc Ci fib]
+10.5 +2.0 56 +11 +11 1018.5 935.9
15 15.06 Ю 2 50 км 1/1 1000 м
[Sc]
+2.0 -2.2 74 -1 -1 1022.2 936.8
18 15.06 ЮЗ 1 50 км 3/0
[Ci fib]
+3.5 -1.3 71 +2 +3 1022.4 937.4
21 15.06 СВ 1 50 км 3/0
[Ci fib]
+14.8 -3.7 28 +16 +22 1018.3 936.8 -0.6
00 16.06 Ю 3 50 км 3/0
[Ci fib]
+18.6 -5.5 19 +19 +28 1016.5 936.1
03 16.06 Ю 2 50 км ясно +20.2 -5.7 17 +20 +32 1014.9 935.1
06 16.06 Ю 3 50 км ясно +20.0 -4.5 19 +20 +25 1014.2 934.4
09 16.06 Ю 3 50 км ясно +17.5 -2.8 25 +18 +18 1014.7 934.2 +21.0
12 16.06 ЮЗ 3 50 км 8/0
[Ci fib]
+17.5 -2.8 25 +18 +18 1014.7 935.2
15 16.06 Ю 2 50 км 1/0
[Ci fib]
+2.7 -2.4 69 -0 -0 1020.5 935.4
18 16.06 Ю 1 50 км 3/0
[Ci fib]
+3.3 -1.9 69 +2 +3 1020.6 935.8
21 16.06 Ю 4 50 км 8/3 1000 м
[Sc Ac trans]
+13.5 +2.0 46 +12 +14 1017.6 935.9 -0.2
00 17.06 ЮЗ 3 20 км слаб. дождь 10/6 1000 м
[Sc As op]
+11.0 +4.6 65 +9 +10 1019.1 936.6
03 17.06 ЮВ 2 50 км {дождь} 10/5 1000 м
[Sc As op]
+13.5 +4.0 53 +13 +14 1017.1 935.5
06 17.06 В 1 50 км {дождь} 10/8 1000 м
[Sc Cs]
+15.6 +4.2 47 +16 +18 1015.4 934.5
09 17.06 ЮЗ 2 50 км 9/1 1000 м
[Sc Ci fib]
+14.6 +4.3 50 +14 +15 1014.6 933.5 +16.6 0.3
12 17.06 С 1 50 км 3/0
[Ci fib]
+5.1 +3.1 87 +4 +4 1017.6 933.6
15 17.06 Ю 1 50 км 3/0
[Ci fib]
+0.9 +0.1 94 -1 -1 1018.8 933.3
18 17.06 С 1 50 км 3/0
[Ci fib]
+4.9 +4.2 95 +3 +4 1016.9 932.9
21 17.06 СВ 4 50 км 8/0
[Ci fib]
+14.7 +4.9 52 +14 +17 1012.8 931.9 +0.3
00 18.06 В 5 50 км 10/0
[Cs]
+17.5 +1.6 34 +17 +22 1010.9 930.8
03 18.06 В 5-10
{10}
50 км 10/0
[As trans]
+19.0 +0.7 29 +19 +21 1009.6 930.0
06 18.06 В 3
{10}
50 км 10/0
[As trans]
+18.7 +0.5 29 +19 +21 1009.1 929.4
09 18.06 В 4 50 км 10/10 1000 м
[Sc]
+16.7 -0.2 32 +16 +16 1009.7 929.5 +19.4
12 18.06 СВ 5 50 км 10/10 1000 м
[Sc]
+14.3 -0.5 36 +13 +13 1010.1 929.2
15 18.06 СВ 5 50 км 10/10 1000 м
[Sc]
+12.5 -3.6 32 +11 +11 1010.8 929.3
18 18.06 СВ 6-10
{11}
50 км 8/8 1000 м
[Sc]
+10.7 +2.5 57 +8 +8 1011.4 929.4
21 18.06 СВ 6
{10}
50 км 10/10 1000 м
[Sc]
+11.4 +3.9 60 +9 +9 1011.2 929.4 +10.6
00 19.06 В 5 50 км 9/9 1000 м
[Sc]
+14.0 +5.5 57 +12 +13 1010.6 929.6
03 19.06 В 4
{10}
50 км 8/5 1000 м
[Sc Ac trans Ci fib]
+15.0 +5.7 54 +14 +17 1010.1 929.4
06 19.06 В 4 50 км 9/5 1000 м
[Sc Ac trans]
+13.0 +5.1 59 +11 +12 1010.9 929.7
09 19.06 В 3 50 км 9/9 1000 м
[Sc]
+10.8 +4.6 66 +9 +9 1012.2 930.2 +15.1
12 19.06 СВ 2 50 км 10/10 1000 м
[Sc]
+9.1 +4.6 73 +8 +8 1012.7 930.2
15 19.06 СВ 1 50 км 10/10 1000 м
[Sc]
+8.2 +4.7 79 +8 +8 1012.6 929.9

 

Местоположение метеостанции Лабазная (Магаданская область, Россия): широта 63.30 долгота 158.50 высота над уровнем моря 709 м.

В архиве по умолчанию представлена погода в Лабазной за последнюю неделю. Архивные данные за месяц целиком и за предыдущие месяцы, начиная с января 2011 года, Вы можете получить, выбрав интересующий диапазон дат из раскрывающегося списка и нажав кнопку "Ввод!".


*Определитесь, кто Вы:
робот инопланетянин человек

Внимание! Время в таблицах - всемирное. Для получения местного времени необходимо прибавить поправку, которая равна 11 ч.

Смотрите также архив погоды в соседних городах и на ближайших метеорологических станциях:

Погода в Эвенске (Магаданская область, Россия) (158 км)
Погода в Омсукчане (Магаданская область, Россия) (162 км)
Погода в Кегали (Магаданская область, Россия) (162 км)
Погода в Балыгычане (Магаданская область, Россия) (228 км)
Погода в Омолоне (Чукотка, Россия) (235 км)
Погода в Коркодоне (Магаданская область, Россия) (276 км)
Погода в Верхне-Пенжино (Камчатский край, Россия) (298 км)
Погода в Сеймчане (Магаданская область, Россия) (310 км)
Погода на Шелихова (Магаданская область, Россия) (320 км)
Погода в Среднекане (Магаданская область, Россия) (328 км)

Пояснения к столбцам:

Ветер - указаны скорость ветра в м/с - средняя за 10 мин, порывы в срок и между сроками (в фигурных скобках) и направление, откуда дует ветер: С - северный, СВ - северо-восточный, В - восточный, ЮВ - юго-восточный, Ю - южный, ЮЗ - юго-западный, З - западный, СЗ - северо-западный.
Видимость - горизонтальная дальность видимости в метрах или километрах. При видимости от 1 до 10 км при отсутствии осадков обычно наблюдается дымка, при ухудшении видимости до 1 км и менее - туман. В сухую погоду видимость может ухудшаться дымом, пылью или мглою.
Явления - указаны атмосферные явления, наблюдавшиеся в срок или в последний час перед сроком; фигурными скобками обозначены явления, наблюдавшиеся между сроками (за 1-3 часа до срока); квадратными скобками обозначены град или гололедные отложения с указанием их диаметра в мм.
Облачность - указаны через наклонную черту общая и нижняя облачность в баллах и высота нижней границы облаков в метрах; квадратными скобками обозначены формы облаков: Ci - перистые, Cs - перисто-слоистые, Cc - перисто-кучевые, Ac - высококучевые, As - высокослоистые, Sc - слоисто-кучевые, Ns - слоисто-дождевые, Cu - кучевые, Cb - кучево-дождевые. Подробнее классификацию облаков см. в Атласе облаков (PDF).
T - Температура воздуха - температура, измеренная на высоте 2 м над землей.
Td - Температура точки росы - температура, при понижении до которой содержащийся в воздухе водяной пар достигнет насыщения.
f - Относительная влажность воздуха - влажноcть воздуха, измеренная на высоте 2 м над землей.
Te - Эффективная температура - температура, которую ощущает одетый по сезону человек в тени. Характеристика душности погоды. При расчете учитывается влияние влажности воздуха и скорости ветра на теплоощущения человека.
Tes - Эффективная температура на солнце - температура, которую ощущает человек, с поправкой на солнечный нагрев. Характеристика знойности погоды. Зависит от высоты солнца над горизонтом, облачности и скорости ветра. Ночью, в пасмурную погоду, а также при ветре 12 м/с и более поправка равна нулю.
P - Атмосферное давление - приведенное к уровню моря атмосферное давление.
Po - Атмосферное давление - измеренное на уровне метеостанции атмосферное давление.
Tmin - Минимальная температура - минимум температуры воздуха на высоте 2 м над землей.
Tmax - Максимальная температура - максимум температуры воздуха на высоте 2 м над землей.
R - Количество осадков - Количество выпавших осадков за период времени, мм. При наведении курсора мыши на число - период времени, за который выпало указанное количество осадков.
R24 - Количество осадков - Количество выпавших осадков за 24 часа, мм.
S - Снежный покров - Высота снежного покрова, см. При наведении курсора мыши на число - состояние снежного покрова и степень покрытия местности в баллах.